Orbital Elements at Epoch 2459200.5 (2020-Dec-17.0) TDB
Reference: JPL 12 (heliocentric ecliptic J2000)
Element | Value | Uncertainty (1-sigma) | Units |
e | .1368561386502616 | 8.3522e-08 | |
a | 2.327793528303708 | 8.9415e-09 | au |
q | 2.009220694444994 | 1.9608e-07 | au |
i | 6.45747190228523 | 6.8158e-06 | deg |
node | 148.2707987686824 | 4.0444e-05 | deg |
peri | 199.1906595747833 | 4.3151e-05 | deg |
M | 130.8853834662664 | 1.3523e-05 | deg |
tp | 2458728.867460932567 (2019-Sep-02.36746093) | 4.8801e-05 | TDB |
period | 1297.224407857856 3.55 | 7.4743e-06 2.046e-08 | d yr |
n | .2775155923827231 | 1.599e-09 | deg/d |
Q | 2.646366362162422 | 1.0165e-08 | au |
|
| | Orbit Determination Parameters
Additional Information
|